TimeHST,TemperatureF,Dew PointF,Humidity,Sea Level PressureIn,VisibilityMPH,Wind Direction,Wind SpeedMPH,Gust SpeedMPH,PrecipitationIn,Events,Conditions,WindDirDegrees,DateUTC
12:25 AM,69.8,64.4,83,30.09,10.0,NNE,19.6,-,N/A,,Mostly Cloudy,30,2014-03-21 10:25:00
12:53 AM,71.1,64.9,81,30.09,10.0,NNE,19.6,-,N/A,,Mostly Cloudy,30,2014-03-21 10:53:00
1:49 AM,71.6,64.4,78,30.08,10.0,NE,19.6,-,N/A,,Mostly Cloudy,50,2014-03-21 11:49:00
1:53 AM,71.1,66.0,84,30.08,10.0,NE,20.7,26.5,N/A,,Mostly Cloudy,40,2014-03-21 11:53:00
2:53 AM,70.0,64.9,84,30.06,10.0,NNE,20.7,28.8,N/A,,Overcast,30,2014-03-21 12:53:00
3:29 AM,68.0,64.4,88,30.06,5.0,NNE,18.4,-,N/A,,Overcast,20,2014-03-21 13:29:00
3:45 AM,68.0,64.4,88,30.06,10.0,NNE,17.3,-,0.00,,Overcast,20,2014-03-21 13:45:00
3:53 AM,69.1,66.0,90,30.05,10.0,NNE,16.1,-,0.00,,Overcast,20,2014-03-21 13:53:00
4:53 AM,68.0,64.9,90,30.06,3.0,NNE,15.0,-,0.00,Rain,Rain,30,2014-03-21 14:53:00
5:19 AM,66.2,64.4,94,30.06,3.0,North,8.1,-,0.07,Rain,Light Rain,350,2014-03-21 15:19:00
5:53 AM,69.1,63.0,81,30.06,10.0,NNE,19.6,-,0.07,,Mostly Cloudy,30,2014-03-21 15:53:00
6:53 AM,70.0,64.0,81,30.07,10.0,NNE,19.6,27.6,N/A,,Overcast,30,2014-03-21 16:53:00
7:53 AM,71.1,64.0,78,30.09,10.0,NE,18.4,-,N/A,,Overcast,50,2014-03-21 17:53:00
8:53 AM,71.1,66.0,84,30.10,9.0,NNE,13.8,-,0.00,Rain,Light Rain,30,2014-03-21 18:53:00
9:53 AM,73.9,64.9,73,30.11,10.0,NNE,16.1,24.2,0.00,,Overcast,30,2014-03-21 19:53:00
10:12 AM,75.2,66.2,73,30.11,10.0,NNE,19.6,24.2,N/A,,Overcast,30,2014-03-21 20:12:00
10:39 AM,75.2,66.2,73,30.11,10.0,NNE,19.6,-,N/A,,Mostly Cloudy,30,2014-03-21 20:39:00
10:53 AM,75.9,66.0,71,30.10,10.0,NNE,18.4,-,N/A,,Mostly Cloudy,20,2014-03-21 20:53:00
11:19 AM,77.0,66.2,69,30.10,10.0,NNE,18.4,-,N/A,,Mostly Cloudy,30,2014-03-21 21:19:00
11:26 AM,75.2,66.2,73,30.10,10.0,NNE,18.4,25.3,N/A,,Scattered Clouds,30,2014-03-21 21:26:00
11:53 AM,73.9,64.9,73,30.09,10.0,NNE,19.6,-,N/A,,Scattered Clouds,30,2014-03-21 21:53:00
12:53 PM,75.9,66.0,71,30.07,10.0,NNE,19.6,26.5,N/A,,Partly Cloudy,30,2014-03-21 22:53:00
1:35 PM,73.4,64.4,73,30.07,10.0,NE,18.4,-,N/A,,Mostly Cloudy,40,2014-03-21 23:35:00
1:44 PM,75.2,64.4,69,30.07,10.0,NNE,20.7,-,N/A,,Scattered Clouds,30,2014-03-21 23:44:00
1:53 PM,75.9,66.0,71,30.06,10.0,NE,19.6,-,N/A,,Scattered Clouds,40,2014-03-21 23:53:00
2:53 PM,77.0,64.9,66,30.04,10.0,NNE,17.3,-,N/A,,Scattered Clouds,30,2014-03-22 00:53:00
3:53 PM,75.0,64.9,71,30.04,10.0,NNE,19.6,-,N/A,,Mostly Cloudy,30,2014-03-22 01:53:00
4:53 PM,73.0,64.9,76,30.04,10.0,NNE,18.4,24.2,N/A,,Partly Cloudy,30,2014-03-22 02:53:00
5:53 PM,72.0,63.0,73,30.05,10.0,NNE,19.6,-,N/A,,Mostly Cloudy,30,2014-03-22 03:53:00
6:53 PM,71.1,63.0,75,30.07,10.0,NE,18.4,-,N/A,,Scattered Clouds,40,2014-03-22 04:53:00
7:53 PM,72.0,63.0,73,30.09,10.0,NE,20.7,-,N/A,,Overcast,40,2014-03-22 05:53:00
8:53 PM,70.0,64.0,81,30.11,10.0,NNE,13.8,26.5,0.00,,Overcast,30,2014-03-22 06:53:00
9:53 PM,71.1,59.0,66,30.12,10.0,NE,17.3,-,N/A,,Clear,40,2014-03-22 07:53:00
10:53 PM,71.1,61.0,70,30.12,10.0,NE,19.6,-,N/A,,Clear,40,2014-03-22 08:53:00
11:53 PM,71.1,62.1,73,30.12,10.0,NE,17.3,-,N/A,,Clear,40,2014-03-22 09:53:00